Weather History for Gilze-Rijen, Netherlands

Change the Weather History Date:

Wednesday, October 31, 2012

  Actual Average Record
Temperature  
Mean Temperature 45 °F -  
Max Temperature 55 °F 47 °F 67 °F (2014)
Min Temperature 35 °F 37 °F 30 °F (1997)
Degree Days  
Heating Degree Days 20    
Moisture  
Dew Point 40 °F    
Average Humidity 88    
Maximum Humidity 100    
Minimum Humidity 54    
Precipitation  
Precipitation 0.00 in - - ()
Sea Level Pressure  
Sea Level Pressure 29.45 in    
Wind  
Wind Speed 8 mph ()    
Max Wind Speed 20 mph    
Max Gust Speed -    
Visibility 5.0 miles    
Events      
Averages and records for this station are not official NWS values.
T = Trace of Precipitation, MM = Missing Value Source: Averaged Metar Reports

Daily Weather History Graph

Daily Weather History Graph

Search for Another Location

Airport:

Trip Planner

Search our weather history database for the weather conditions in past years. The results will help you decide how hot, cold, wet, or windy it might be!

Date:

Astronomy

Oct. 31, 2012 Rise Set
Actual Time 7:32 AM CET 5:14 PM CET
Civil Twilight 6:57 AM CET 5:49 PM CET
Nautical Twilight 6:18 AM CET 6:28 PM CET
Astronomical Twilight 5:39 AM CET 7:07 PM CET
Moon 6:00 PM CET (10/31) 9:12 AM CET (10/31)
Length of Visible Light 10h 51m
Length of Day
9h 41m
Full, 98% of the Moon is Illuminated
Oct 31
Full
Nov 7
Last Quarter
Nov 13
New
Nov 20
First Quarter
Nov 28
Full

Hourly Weather History & Observations

Time (CET) Temp. Windchill Dew Point Humidity Pressure Visibility Wind Dir Wind Speed Gust Speed Precip Events Conditions
12:25 AM 35.6 °F 29.9 °F 35.6 °F 100% 29.59 in 3.1 mi South 6.9 mph - N/A   Mist
12:30 AM 37.4 °F 32.8 °F 35.6 °F 93% 29.59 in - South 5.8 mph - N/A   Mist
12:34 AM 37.4 °F 32.8 °F 35.6 °F 93% 29.59 in 3.1 mi South 5.8 mph - N/A   Mist
12:45 AM 35.6 °F 30.7 °F 35.6 °F 100% 29.56 in - South 5.8 mph - N/A   Mist
12:51 AM 35.6 °F 30.7 °F 35.6 °F 100% 29.56 in 3.1 mi South 5.8 mph - N/A   Mist
12:55 AM 35.6 °F 30.7 °F 35.6 °F 100% 29.56 in 3.1 mi South 5.8 mph - N/A   Mist
12:59 AM 35.6 °F 29.9 °F 35.6 °F 100% 29.56 in - South 6.9 mph - N/A   Mist
1:03 AM 37.4 °F 32.1 °F 37.4 °F 100% 29.56 in 3.1 mi South 6.9 mph - N/A   Mist
1:08 AM 37.4 °F 32.8 °F 37.4 °F 100% 29.56 in - SSW 5.8 mph - N/A   Mist
1:10 AM 37.4 °F 32.8 °F 35.6 °F 93% 29.56 in 3.1 mi SSW 5.8 mph - N/A   Mist
1:16 AM 37.4 °F 32.8 °F 37.4 °F 100% 29.56 in - SSW 5.8 mph - N/A   Mist
1:25 AM 35.6 °F 30.7 °F 35.6 °F 100% 29.56 in - South 5.8 mph - N/A   Mist
1:31 AM 37.4 °F 32.1 °F 37.4 °F 100% 29.56 in 3.1 mi South 6.9 mph - N/A   Mist
1:35 AM 37.4 °F 32.1 °F 37.4 °F 100% 29.56 in - South 6.9 mph - N/A   Mist
1:55 AM 37.4 °F 32.1 °F 37.4 °F 100% 29.56 in 2.5 mi South 6.9 mph - N/A   Partly Cloudy
1:59 AM 37.4 °F 32.1 °F 37.4 °F 100% 29.56 in - South 6.9 mph - N/A   Partly Cloudy
2:02 AM 37.4 °F 32.1 °F 37.4 °F 100% 29.56 in - South 6.9 mph - N/A   Mist
2:07 AM 37.4 °F 32.1 °F 37.4 °F 100% 29.56 in 2.2 mi South 6.9 mph - N/A   Mist
2:25 AM 37.4 °F 32.8 °F 35.6 °F 93% 29.56 in - South 5.8 mph - N/A   Mist
2:45 AM 37.4 °F 32.1 °F 37.4 °F 100% 29.53 in - South 6.9 mph - N/A   Mist
2:49 AM 37.4 °F 32.1 °F 37.4 °F 100% 29.53 in - South 6.9 mph - N/A   Partly Cloudy
2:55 AM 37.4 °F 32.1 °F 37.4 °F 100% 29.53 in - South 6.9 mph - N/A   Partly Cloudy
2:58 AM 37.4 °F 32.1 °F 37.4 °F 100% 29.53 in - South 6.9 mph - N/A   Partly Cloudy
3:04 AM 37.4 °F 32.1 °F 35.6 °F 93% 29.53 in - South 6.9 mph - N/A   Partly Cloudy
3:14 AM 35.6 °F 29.2 °F 35.6 °F 100% 29.53 in - South 8.1 mph - N/A   Mist
3:25 AM 35.6 °F 29.2 °F 35.6 °F 100% 29.53 in - South 8.1 mph - N/A   Partly Cloudy
3:55 AM 37.4 °F 32.1 °F 37.4 °F 100% 29.53 in - South 6.9 mph - N/A   Mist
4:00 AM 37.4 °F 32.1 °F 37.4 °F 100% 29.53 in 3.1 mi South 6.9 mph - N/A   Mist
4:01 AM 37.4 °F 32.1 °F 37.4 °F 100% 29.53 in - South 6.9 mph - N/A   Mist
4:25 AM 37.4 °F 31.4 °F 37.4 °F 100% 29.50 in - South 8.1 mph - N/A   Partly Cloudy
4:28 AM 37.4 °F 31.4 °F 37.4 °F 100% 29.50 in 3.1 mi South 8.1 mph - N/A   Scattered Clouds
4:41 AM 37.4 °F 31.4 °F 37.4 °F 100% 29.50 in - South 8.1 mph - N/A   Partly Cloudy
4:44 AM 37.4 °F 31.4 °F 37.4 °F 100% 29.50 in 3.1 mi South 8.1 mph - N/A   Mist
4:49 AM 37.4 °F 31.4 °F 37.4 °F 100% 29.50 in - South 8.1 mph - N/A   Partly Cloudy
4:55 AM 37.4 °F 31.4 °F 37.4 °F 100% 29.50 in - South 8.1 mph - N/A   Scattered Clouds
5:25 AM 39.2 °F 33.6 °F 39.2 °F 100% 29.50 in 1.7 mi South 8.1 mph - N/A   Mostly Cloudy
5:55 AM 41.0 °F 35.2 °F 41.0 °F 100% 29.50 in 1.8 mi South 9.2 mph - N/A   Overcast
6:25 AM 42.8 °F 37.5 °F 42.8 °F 100% 29.50 in - South 9.2 mph - N/A   Mostly Cloudy
6:36 AM 42.8 °F 37.5 °F 42.8 °F 100% 29.50 in - South 9.2 mph - N/A   Mostly Cloudy
6:37 AM 42.8 °F 37.5 °F 42.8 °F 100% 29.47 in - South 9.2 mph - N/A   Mostly Cloudy
6:44 AM 42.8 °F 37.0 °F 42.8 °F 100% 29.47 in - South 10.4 mph - N/A   Overcast
6:55 AM 44.6 °F 39.2 °F 42.8 °F 93% 29.47 in - South 10.4 mph - N/A   Overcast
6:59 AM 44.6 °F 39.2 °F 42.8 °F 93% 29.47 in - South 10.4 mph - N/A   Overcast
7:04 AM 44.6 °F 39.2 °F 44.6 °F 100% 29.47 in 2.2 mi South 10.4 mph - N/A   Overcast
7:05 AM 44.6 °F 39.2 °F 42.8 °F 93% 29.47 in - South 10.4 mph - N/A   Overcast
7:14 AM 44.6 °F 39.2 °F 42.8 °F 93% 29.47 in - South 10.4 mph - N/A   Overcast
7:19 AM 44.6 °F 39.7 °F 44.6 °F 100% 29.47 in - South 9.2 mph - N/A   Overcast
7:25 AM 44.6 °F 39.2 °F 44.6 °F 100% 29.47 in - South 10.4 mph - N/A   Overcast
7:39 AM 44.6 °F 38.8 °F 42.8 °F 93% 29.47 in 2.8 mi South 11.5 mph - N/A   Overcast
7:44 AM 44.6 °F 38.8 °F 44.6 °F 100% 29.47 in 3.1 mi South 11.5 mph - N/A   Overcast
7:45 AM 44.6 °F 38.8 °F 44.6 °F 100% 29.47 in - South 11.5 mph - N/A   Overcast
7:55 AM 44.6 °F 39.2 °F 42.8 °F 93% 29.47 in - South 10.4 mph - N/A   Overcast
8:13 AM 44.6 °F 39.2 °F 44.6 °F 100% 29.47 in 3.1 mi South 10.4 mph - N/A   Overcast
8:19 AM 44.6 °F 39.7 °F 44.6 °F 100% 29.47 in - South 9.2 mph - N/A   Overcast
8:25 AM 44.6 °F 39.2 °F 44.6 °F 100% 29.47 in - South 10.4 mph - N/A   Overcast
8:27 AM 44.6 °F 39.2 °F 44.6 °F 100% 29.47 in 3.1 mi South 10.4 mph - N/A   Overcast
8:38 AM 44.6 °F 38.8 °F 44.6 °F 100% 29.47 in 3.1 mi South 11.5 mph - N/A   Overcast
8:55 AM 46.4 °F 41.1 °F 44.6 °F 93% 29.47 in 3.7 mi South 11.5 mph - N/A   Overcast
9:00 AM 46.4 °F 41.1 °F 44.6 °F 93% 29.47 in 5.0 mi South 11.5 mph - N/A   Overcast
9:08 AM 46.4 °F 40.7 °F 44.6 °F 93% 29.47 in 4.3 mi South 12.7 mph - N/A   Overcast
9:15 AM 46.4 °F 40.7 °F 46.4 °F 100% 29.47 in 5.0 mi South 12.7 mph - N/A   Overcast
9:19 AM 46.4 °F 40.7 °F 44.6 °F 93% 29.47 in 4.3 mi South 12.7 mph - N/A   Overcast
9:25 AM 46.4 °F 40.7 °F 46.4 °F 100% 29.47 in 4.3 mi South 12.7 mph - N/A   Overcast
9:30 AM 48.2 °F - 46.4 °F 93% 29.47 in 5.0 mi South 12.7 mph - N/A   Overcast
9:40 AM 48.2 °F - 46.4 °F 93% 29.47 in 5.6 mi South 15.0 mph - N/A   Overcast
9:55 AM 48.2 °F - 46.4 °F 93% 29.47 in 6.2 mi South 16.1 mph - N/A   Overcast
10:18 AM 50.0 °F - 44.6 °F 82% 29.47 in 6.2 mi South 15.0 mph - N/A   Unknown
10:25 AM 50.0 °F - 44.6 °F 82% 29.47 in 6.2 mi South 13.8 mph - N/A   Unknown
10:41 AM 50.0 °F - 46.4 °F 87% 29.47 in 6.2 mi South 15.0 mph - N/A   Partly Cloudy
10:42 AM 50.0 °F - 46.4 °F 87% 29.47 in 6.2 mi South 15.0 mph - N/A   Partly Cloudy
10:55 AM 50.0 °F - 44.6 °F 82% 29.47 in 6.2 mi SSW 13.8 mph - N/A   Unknown
11:25 AM 51.8 °F - 44.6 °F 76% 29.47 in 6.2 mi SSW 13.8 mph - N/A   Partly Cloudy
11:55 AM 53.6 °F - 44.6 °F 72% 29.44 in 6.2 mi SSW 12.7 mph - N/A   Partly Cloudy
12:25 PM 53.6 °F - 42.8 °F 67% 29.44 in 6.2 mi South 15.0 mph - N/A   Mostly Cloudy
12:55 PM 55.4 °F - 42.8 °F 63% 29.44 in 6.2 mi South 15.0 mph - N/A   Mostly Cloudy
1:25 PM 55.4 °F - 39.2 °F 54% 29.42 in 6.2 mi South 19.6 mph - N/A   Unknown
1:55 PM 55.4 °F - 39.2 °F 54% 29.42 in 6.2 mi South 16.1 mph - N/A   Unknown
2:25 PM 55.4 °F - 39.2 °F 54% 29.39 in 6.2 mi South 15.0 mph - N/A   Unknown
2:55 PM 55.4 °F - 39.2 °F 54% 29.39 in 6.2 mi South 13.8 mph - N/A   Partly Cloudy
2:59 PM 53.6 °F - 37.4 °F 54% 29.39 in 6.2 mi South 15.0 mph - N/A   Mostly Cloudy
3:25 PM 53.6 °F - 37.4 °F 54% 29.36 in 6.2 mi South 12.7 mph - N/A   Unknown
3:55 PM 53.6 °F - 37.4 °F 54% 29.36 in 6.2 mi South 11.5 mph - N/A   Unknown
4:25 PM 51.8 °F - 37.4 °F 58% 29.36 in 6.2 mi South 10.4 mph - N/A   Partly Cloudy
4:31 PM 51.8 °F - 37.4 °F 58% 29.36 in 6.2 mi South 10.4 mph - N/A   Partly Cloudy
4:55 PM 50.0 °F - 37.4 °F 62% 29.33 in 6.2 mi SSE 6.9 mph - N/A   Unknown
5:25 PM 46.4 °F 42.9 °F 37.4 °F 71% 29.33 in 6.2 mi SE 6.9 mph - N/A   Unknown
5:55 PM 44.6 °F 41.4 °F 37.4 °F 76% 29.33 in 6.2 mi SE 5.8 mph - N/A   Partly Cloudy
6:12 PM 44.6 °F 40.7 °F 37.4 °F 76% 29.33 in 6.2 mi SSE 6.9 mph - N/A   Unknown
6:25 PM 44.6 °F 40.7 °F 37.4 °F 76% 29.33 in 6.2 mi SSE 6.9 mph - N/A   Unknown
6:30 PM 44.6 °F 40.7 °F 37.4 °F 76% 29.33 in 6.2 mi SSE 6.9 mph - N/A   Unknown
6:55 PM 44.6 °F 40.7 °F 37.4 °F 76% 29.30 in 6.2 mi SSE 6.9 mph - N/A   Unknown
7:25 PM 46.4 °F 41.5 °F 37.4 °F 71% 29.30 in 6.2 mi South 10.4 mph - N/A   Unknown
7:55 PM 46.4 °F 41.5 °F 37.4 °F 71% 29.30 in 6.2 mi South 10.4 mph - N/A   Partly Cloudy
8:25 PM 46.4 °F 41.1 °F 37.4 °F 71% 29.30 in 6.2 mi South 11.5 mph - N/A   Unknown
8:55 PM 46.4 °F 41.5 °F 37.4 °F 71% 29.30 in 6.2 mi South 10.4 mph - N/A   Unknown
9:25 PM 44.6 °F 39.7 °F 37.4 °F 76% 29.30 in 6.2 mi SSE 9.2 mph - N/A   Unknown
9:55 PM 44.6 °F 39.7 °F 37.4 °F 76% 29.27 in 6.2 mi SSE 9.2 mph - N/A   Unknown
10:25 PM 42.8 °F 37.5 °F 37.4 °F 81% 29.27 in 6.2 mi SSE 9.2 mph - N/A   Unknown
10:30 PM 42.8 °F 37.5 °F 37.4 °F 81% 29.27 in 6.2 mi SSE 9.2 mph - N/A   Unknown
10:55 PM 44.6 °F 39.7 °F 37.4 °F 76% 29.24 in 6.2 mi SSE 9.2 mph - N/A   Unknown
11:06 PM 44.6 °F 39.2 °F 37.4 °F 76% 29.24 in 6.2 mi SSE 10.4 mph - N/A   Unknown
11:25 PM 44.6 °F 39.7 °F 37.4 °F 76% 29.24 in 6.2 mi SSE 9.2 mph - N/A   Unknown
11:55 PM 44.6 °F 39.2 °F 37.4 °F 76% 29.24 in 6.2 mi SSE 10.4 mph - N/A   Unknown